Retour au catalogue

NOAA 11 DEB

ActifSSO
NORAD 37241·DEBRIS·🇺🇸 United States

Lancé Sep 24, 1988 depuis Vandenberg Space Force Base

Loading…

Prochains Passages (prochaines 24 heures)

TLE

FraisSource: Space-Track

Époque: Sep 14, 2026, 22:07 UTC

1 37241U 88089D   26257.92196922  .00000526  00000-0  22747-3 0  9990
2 37241  98.9695  77.0853 0020238 307.2183  52.7150 14.28651278965277

Suivez NOAA 11 DEB en temps réel avec AllMySat

Download on the App Store